Regional Weather Roundup
Issued by NWS Mt. Holly, NJ

Home | Current Version | Previous Version | Text Only | Print | Product List | Glossary On
Versions: 1 2 3 4 5 6 7 8 9 10 11 12 13 14 15 16 17 18 19 20 21 22 23 24 25 26 27 28
000
ASUS41 KPHI 251112
RWRPHI

REGIONAL WEATHER ROUNDUP
NATIONAL WEATHER SERVICE MOUNT HOLLY NJ
700 AM EDT WED MAY 25 2016

NOTE:  "FAIR" INDICATES FEW OR NO CLOUDS BELOW 12,000 FEET WITH NO
SIGNIFICANT WEATHER AND/OR OBSTRUCTIONS TO VISIBILITY.

 * = STATION DOES NOT REPORT PRECIPITATION (E.G. RAIN, SNOW, ETC.)
        OR FOG.

NJZ015>026-251200-
SOUTHERN NEW JERSEY

CITY           SKY/WX    TMP DP  RH WIND       PRES   REMARKS
POMONA         SUNNY     58  53  84 W3        30.09R
WILDWOOD*      SUNNY    N/A N/A N/A W8        30.11R
MILLVILLE      SUNNY     57  53  86 W5        30.10R
WRIGHTSTOWN    SUNNY     59  56  88 SW1       30.06R
MOUNT HOLLY      N/A     55  54  96 CALM      30.09R
TRENTON        SUNNY     60  52  74 NW3       30.07R

$$
NJZ001>014-251200-
NORTHERN NEW JERSEY

CITY           SKY/WX    TMP DP  RH WIND       PRES   REMARKS
SUSSEX         SUNNY     50  48  93 CALM      30.08R
ANDOVER*         N/A     52  52 100 CALM      30.09R
MORRISTOWN     MOSUNNY   48  48 100 CALM      30.06R
NEWARK         MOSUNNY   60  54  80 S3        30.05R
TETERBORO      SUNNY     59  53  80 CALM      30.04R
CALDWELL       SUNNY     55  51  86 CALM      30.06R
SOMERVILLE     SUNNY     50  49  96 CALM      30.06R
ALLAIRE*       SUNNY     58  53  84 W7        30.08R
TOMS RIVER*    SUNNY     54  48  82 CALM      30.08R

$$
PAZ043-044-047-054-055-060>062-066>071-251200-
EASTERN PENNSYLVANIA

CITY           SKY/WX    TMP DP  RH WIND       PRES   REMARKS
PHILADELPHIA   MOSUNNY   61  52  72 SW6       30.10R
NORTH PHILA    SUNNY     61  55  81 SW3       30.10R
BLUE BELL*     SUNNY     54  54 100 CALM      30.10R
DOYLESTOWN     SUNNY     53  51  93 CALM      30.09R
QUAKERTOWN*    SUNNY     50  48  93 CALM      30.10R
PERKASIE*      FAIR      52  52 100 CALM      30.11R
POTTSTOWN      SUNNY     53  52  96 CALM      30.11R FOG
LANCASTER      SUNNY     53  49  86 CALM      30.12R
COATESVILLE    SUNNY     61  50  67 W6        30.13R
READING        SUNNY     55  51  86 CALM      30.10R
ALLENTOWN      SUNNY     54  51  90 SW5       30.09R
MOUNT POCONO   SUNNY     50  39  66 NW7       30.11R
HAZLETON       SUNNY     50  45  81 CALM      30.16R
LEHIGHTON      FAIR      45  45 100 CALM      30.12R
WILKES BARRE   SUNNY     51  44  77 SE3       30.11R

$$
DEZALL-MDZ008-012-015-019-020-251200-
DELAWARE AND EASTERN MARYLAND

CITY           SKY/WX    TMP DP  RH WIND       PRES   REMARKS
WILMINGTON     SUNNY     61  51  70 NW5       30.11R
DOVER          SUNNY     61  57  84 SW5       30.10R
GEORGETOWN     SUNNY     64  55  72 CALM      30.12R
EASTON         SUNNY     61  61 100 CALM      30.16R
ABERDEEN       SUNNY     61  50  67 CALM      30.11R
PATUXENT       MOSUNNY   62  56  80 W5        30.13R
OCEAN CITY     SUNNY     65  56  72 W8        30.12R
WALLOPS ISLAND FAIR      67  60  78 W8        30.13R
CAMBRIDGE        N/A     55  54  94 CALM      30.12R
SALISBURY      SUNNY     61  58  90 CALM      30.12R

$$
PAZ001-021-NYZ056-072-MDZ011-DCZ001-251200-
OTHER NEARBY LOCATIONS

CITY           SKY/WX    TMP DP  RH WIND       PRES   REMARKS
HARRISBURG     MOSUNNY   61  51  70 W5        30.11R
STATE COLLEGE  SUNNY     52  48  87 CALM      30.15R
WILLIAMSPORT   SUNNY     50  44  80 CALM      30.12R
BINGHAMTON     SUNNY     56  40  55 SW7       30.09R
NEW YORK CITY  SUNNY     64  50  60 W3        30.08R
BALTIMORE      MOSUNNY   63  52  67 W5        30.12R
WASHINGTON DC  FAIR      62  59  90 S3        30.14R

$$




USA.gov is the U.S. government's official web portal to all federal, state and local government web resources and services.